Tracking 19796 objects as of 19-Jul-2019
HD Live streaming from Space Station
objects crossing your sky now

FENGYUN 1C DEB

Track FENGYUN 1C DEB now!
10-day predictions


NORAD ID: 31064
Int'l Code: 1999-025BFJ
Perigee: 657.1 km
Apogee: 1,018.6 km
Inclination: 98.6 °
Period: 101.5 minutes
Semi major axis: 7208 km
RCS: 0.0138 m2 (small)
Launch date: May 10, 1999
Source: People's Republic of China (PRC)
Launch site: Taiyaun Space Center, China (TSC)

Note: This is SATELLITE DEBRIS
aabbcc
Your satellite tracking list
Your tracking list is empty




NASA's NSSDC Master Catalog

Two Line Element Set (TLE):
1 31064U 99025BFJ 19199.34127639 +.00000043 +00000-0 +33153-4 0  9999
2 31064 098.5868 232.2619 0250713 298.5145 118.2575 14.18424403640669
Source of the keplerian elements: AFSPC